"2016-05-17 00:00:00",1640091,8.24,62.3,6.514,1.225,9.72,100.9597,1.748,3.033,95.9,0,109.8,13.31,2.51,24.3
"2016-05-17 00:00:30",1640092,8.02,66.7,6.498,1.271,9.64,100.96,1.749,3.016,95.9,0,109.8,13.3,2.51,28.7
"2016-05-17 00:01:00",1640093,8.15,60.61,6.502,1.161,9.45,100.9577,1.743,2.987,95.9,0,109.8,13.3,2.50,22.6
"2016-05-17 00:01:30",1640094,7.997,57.3,6.917,1.283,9.75,100.9551,1.736,2.99,95.9,0,109.8,13.3,2.49,19.3
"2016-05-17 00:02:00",1640095,7.695,60.75,6.224,1.299,9.92,100.9574,1.742,2.999,95.9,0,109.8,13.3,2.50,22.8
"2016-05-17 00:02:30",1640096,7.562,63.75,6.13,1.279,9.99,100.956,1.739,3.011,95.9,0,109.8,13.3,2.50,25.8
"2016-05-17 00:03:00",1640097,7.617,66.34,6.317,1.231,9.55,100.9549,1.736,2.996,95.9,0,109.8,13.3,2.49,28.3
"2016-05-17 00:03:30",1640098,7.737,66.34,6.302,1.221,9.56,100.9546,1.735,3.008,95.9,0,109.8,13.3,2.49,28.3
"2016-05-17 00:04:00",1640099,7.65,65,7.159,1.222,9.78,100.954,1.733,2.98,95.9,0,109.8,13.3,2.49,27.0
"2016-05-17 00:04:30",1640100,7.687,66.56,6.571,1.211,9.67,100.9532,1.731,2.998,95.9,0,109.8,13.3,2.49,28.6
"2016-05-17 00:05:00",1640101,7.603,66.88,6.48,1.275,9.33,100.9532,1.731,3.018,95.9,0,109.8,13.3,2.49,28.9
"2016-05-17 00:05:30",1640102,7.591,65.87,7.296,1.207,9.45,100.9529,1.731,2.988,95.9,0,109.8,13.3,2.49,27.9
"2016-05-17 00:06:00",1640103,7.832,66.05,6.645,1.193,9.48,100.9503,1.724,2.999,95.9,0,109.8,13.31,2.48,28.1
"2016-05-17 00:06:30",1640104,7.379,65.46,7.294,1.316,9.35,100.9486,1.72,2.975,95.9,0,109.8,13.31,2.48,27.5
"2016-05-17 00:07:00",1640105,7.212,65.04,6.788,1.427,9.08,100.9472,1.716,2.946,95.9,0,109.8,13.31,2.47,27.0
"2016-05-17 00:07:30",1640106,7.434,60.72,6.826,1.35,9.08,100.9498,1.723,2.917,95.8,0,109.8,13.31,2.48,22.7
"2016-05-17 00:08:00",1640107,7.615,55.9,6.793,1.275,8.93,100.9506,1.725,2.951,95.9,0,109.8,13.31,2.48,17.9
"2016-05-17 00:08:30",1640108,7.662,60.27,6.828,1.343,9.26,100.9509,1.726,2.981,95.9,0,109.8,13.31,2.48,22.3
"2016-05-17 00:09:00",1640109,7.898,59.56,6.942,1.256,9.29,100.9518,1.728,2.95,95.9,0,109.8,13.31,2.49,21.6
"2016-05-17 00:09:30",1640110,7.198,59.25,6.572,1.313,9.5,100.952,1.728,3.002,95.9,0,109.7,13.31,2.49,21.2
"2016-05-17 00:10:00",1640111,7.367,53.67,6.69,1.279,9.4,100.9543,1.734,2.998,95.9,0,109.8,13.31,2.49,15.7
"2016-05-17 00:10:30",1640112,7.465,60.06,7.389,1.267,9.63,100.9535,1.732,2.993,95.9,0,109.8,13.31,2.49,22.1
"2016-05-17 00:11:00",1640113,8.3,54.37,6.691,1.318,9.49,100.9575,1.742,2.983,95.9,0,109.8,13.31,2.50,16.4
"2016-05-17 00:11:30",1640114,8.39,54.51,9.71,1.232,9.4,100.962,1.754,2.982,95.9,0,109.8,13.31,2.51,16.5
"2016-05-17 00:12:00",1640115,7.961,54.85,7.097,1.264,9.85,100.9676,1.768,2.984,95.9,0,109.8,13.31,2.53,16.8
"2016-05-17 00:12:30",1640116,7.286,52.43,6.903,1.341,9.73,100.9662,1.765,3.008,95.9,0,109.8,13.31,2.52,14.4
"2016-05-17 00:13:00",1640117,8.69,57.29,7.547,1.191,9.8,100.9733,1.783,2.968,95.9,0,109.8,13.31,2.54,19.3
"2016-05-17 00:13:30",1640118,8.23,55.2,7.169,1.3,9.92,100.9753,1.788,3.004,96,0,109.8,13.31,2.55,17.2
"2016-05-17 00:14:00",1640119,6.885,45.97,6.877,1.367,9.66,100.9753,1.788,3.004,95.9,0,109.8,13.31,2.55,8.0
"2016-05-17 00:14:30",1640120,6.458,43.78,7.063,1.495,9.8,100.9747,1.786,3.004,96,0,109.8,13.31,2.54,5.8
"2016-05-17 00:15:00",1640121,7.105,51.11,6.279,1.298,9.8,100.9753,1.788,3.027,96,0,109.8,13.31,2.55,13.1
"2016-05-17 00:15:30",1640122,6.807,48.09,7.171,1.414,9.85,100.9741,1.785,3.023,95.9,0,109.7,13.31,2.54,10.1
"2016-05-17 00:16:00",1640123,6.754,48.86,7.521,1.334,9.89,100.9741,1.785,3.001,95.9,0,109.8,13.31,2.54,10.9
"2016-05-17 00:16:30",1640124,6.487,58.15,7.115,1.294,9.87,100.9773,1.793,3.062,96,0,109.8,13.31,2.55,20.2
"2016-05-17 00:17:00",1640125,6.443,50.65,7.456,1.317,9.83,100.9775,1.793,3.044,96,0,109.8,13.3,2.55,12.7
"2016-05-17 00:17:30",1640126,7.088,53.16,6.297,1.207,9.56,100.9793,1.798,3.032,95.9,0,109.8,13.3,2.56,15.2
"2016-05-17 00:18:00",1640127,7.26,55.42,6.274,1.183,9.47,100.977,1.792,3.023,96,0,109.8,13.3,2.55,17.4
"2016-05-17 00:18:30",1640128,6.93,51.16,7.289,1.288,9.4,100.9767,1.791,3.032,95.9,0,109.8,13.3,2.55,13.2
"2016-05-17 00:19:00",1640129,7.08,53.05,6.5,1.245,9.88,100.9764,1.791,3.059,96,0,109.8,13.3,2.55,15.0
"2016-05-17 00:19:30",1640130,7.047,57.61,6.269,1.242,9.69,100.9764,1.791,3.061,96,0,109.8,13.3,2.55,19.6
"2016-05-17 00:20:00",1640131,7.015,53.85,6.908,1.3,9.26,100.9747,1.786,3.06,96,0,109.8,13.3,2.54,15.8
"2016-05-17 00:20:30",1640132,7.187,57.39,6.575,1.223,9.48,100.9721,1.78,3.032,96,0,109.8,13.3,2.54,19.4
"2016-05-17 00:21:00",1640133,7.469,53.16,6.923,1.22,9.56,100.9719,1.779,3.038,95.9,0,109.8,13.3,2.54,15.2
"2016-05-17 00:21:30",1640134,7.582,55.96,6.55,1.247,9.48,100.9721,1.78,3.033,96,0,109.8,13.3,2.54,18.0
"2016-05-17 00:22:00",1640135,7.566,56.72,6.073,1.229,9.52,100.9716,1.778,3.061,96,0,109.8,13.3,2.54,18.7
"2016-05-17 00:22:30",1640136,7.726,57.68,6.276,1.152,9.7,100.9713,1.778,3.033,96,0,109.8,13.31,2.54,19.7
"2016-05-17 00:23:00",1640137,7.674,58.41,6.577,1.225,9.19,100.9724,1.78,3.035,95.9,0,109.8,13.31,2.54,20.4
"2016-05-17 00:23:30",1640138,7.578,59.34,6.574,1.224,9.32,100.9693,1.772,3.011,95.9,0,109.8,13.31,2.53,21.3
"2016-05-17 00:24:00",1640139,7.457,61.2,6.328,1.26,9.55,100.9653,1.762,3.019,96,0,109.8,13.31,2.52,23.2
"2016-05-17 00:24:30",1640140,7.547,60.63,5.794,1.271,9.38,100.9631,1.757,3.022,95.9,0,109.8,13.31,2.51,22.6
"2016-05-17 00:25:00",1640141,7.73,60.39,6.656,1.229,9.68,100.9603,1.749,3.022,95.9,0,109.9,13.31,2.51,22.4
"2016-05-17 00:25:30",1640142,7.731,57.39,7.126,1.23,9.59,100.958,1.744,3.008,96,0,109.8,13.31,2.50,19.4
"2016-05-17 00:26:00",1640143,7.653,58.47,7.235,1.16,9.53,100.9577,1.743,3.002,95.9,0,109.8,13.31,2.50,20.5
"2016-05-17 00:26:30",1640144,6.99,59.69,6.352,1.21,9.83,100.9572,1.742,3.007,96,0,109.8,13.31,2.50,21.7
"2016-05-17 00:27:00",1640145,7.183,55.43,6.136,1.276,9.23,100.9546,1.735,3.013,95.9,0,109.8,13.31,2.49,17.4
"2016-05-17 00:27:30",1640146,7.481,56.79,6.47,1.173,9.25,100.9524,1.729,2.982,96,0,109.7,13.31,2.49,18.8
"2016-05-17 00:28:00",1640147,7.275,57.36,6.493,1.229,9.54,100.9527,1.73,2.98,95.9,0,109.8,13.31,2.49,19.4
"2016-05-17 00:28:30",1640148,6.88,57.29,6.305,1.328,9.47,100.9529,1.731,2.996,95.9,0,109.8,13.31,2.49,19.3
"2016-05-17 00:29:00",1640149,6.706,60.12,6.209,1.286,9.73,100.9527,1.73,3.007,96,0,109.8,13.31,2.49,22.1
"2016-05-17 00:29:30",1640150,6.919,59.04,6.628,1.187,9.85,100.951,1.726,2.993,96,0,109.8,13.31,2.48,21.0
"2016-05-17 00:30:00",1640151,6.527,60.19,6.476,1.286,9.32,100.9521,1.729,2.996,96,0,109.8,13.31,2.49,22.2
"2016-05-17 00:30:30",1640152,6.738,60.05,5.94,1.261,9.33,100.9532,1.731,2.982,96,0,109.8,13.31,2.49,22.0
"2016-05-17 00:31:00",1640153,6.638,58.93,6.696,1.27,9.25,100.9552,1.736,2.968,95.9,0,109.8,13.31,2.49,20.9
"2016-05-17 00:31:30",1640154,6.267,56.42,6.709,1.326,8.71,100.9612,1.752,2.953,95.9,0,109.8,13.31,2.51,18.4
"2016-05-17 00:32:00",1640155,5.173,51.58,6.239,1.185,7.354,100.9614,1.752,2.873,95.8,0,109.7,13.31,2.51,13.6
"2016-05-17 00:32:30",1640156,5.958,52.92,6.918,1.367,8.01,100.9628,1.756,2.811,95.8,0,109.8,13.31,2.51,14.9
"2016-05-17 00:33:00",1640157,6.541,55.09,6.58,1.324,9.43,100.9702,1.775,2.984,96,0,109.8,13.31,2.53,17.1
"2016-05-17 00:33:30",1640158,6.769,55.81,6.404,1.303,9.69,100.9722,1.78,3.01,96,0,109.8,13.31,2.54,17.8
"2016-05-17 00:34:00",1640159,6.952,55.2,6.838,1.302,9.79,100.9736,1.783,2.96,95.9,0,109.8,13.31,2.54,17.2
"2016-05-17 00:34:30",1640160,6.977,55.82,6.831,1.332,9.29,100.9747,1.786,2.974,95.9,0,109.8,13.31,2.54,17.8
"2016-05-17 00:35:00",1640161,7.174,58.21,6.278,1.273,10.02,100.9733,1.783,2.997,96,0,109.8,13.31,2.54,20.2
"2016-05-17 00:35:30",1640162,6.913,56.6,6.902,1.296,9.38,100.9741,1.785,2.972,95.9,0,109.8,13.31,2.54,18.6
"2016-05-17 00:36:00",1640163,7.044,59.27,6.626,1.319,9.92,100.9756,1.789,2.971,96,0,109.8,13.31,2.55,21.3
"2016-05-17 00:36:30",1640164,7.007,57.49,6.723,1.32,9.11,100.9745,1.786,2.926,95.9,0,109.8,13.31,2.54,19.5
"2016-05-17 00:37:00",1640165,6.845,55.68,7.038,1.353,8.56,100.9759,1.789,2.878,95.9,0,109.8,13.31,2.55,17.7
"2016-05-17 00:37:30",1640166,6.746,52.94,6.823,1.348,8.64,100.975,1.787,2.911,95.9,0,109.8,13.31,2.55,14.9
"2016-05-17 00:38:00",1640167,7.073,55.11,7.028,1.312,9.49,100.9753,1.788,2.984,95.9,0,109.8,13.31,2.55,17.1
"2016-05-17 00:38:30",1640168,7.214,53.95,6.657,1.338,9.59,100.9759,1.789,2.968,96,0,109.8,13.31,2.55,16.0
"2016-05-17 00:39:00",1640169,7.376,54.68,6.396,1.317,9.5,100.9762,1.79,3.014,96,0,109.8,13.32,2.55,16.7
"2016-05-17 00:39:30",1640170,7.285,53.13,6.512,1.281,9.78,100.9719,1.779,2.985,96,0,109.8,13.32,2.54,15.1
"2016-05-17 00:40:00",1640171,7.374,54.19,6.257,1.235,9.87,100.9748,1.786,3.006,96,0,109.8,13.32,2.54,16.2
"2016-05-17 00:40:30",1640172,7.418,53.5,5.979,1.213,9.52,100.9708,1.776,3.016,96,0,109.8,13.32,2.53,15.5
"2016-05-17 00:41:00",1640173,7.368,51.93,6.745,1.214,9.45,100.9705,1.776,2.982,96,0,109.8,13.32,2.53,13.9
"2016-05-17 00:41:30",1640174,7.358,52.44,6.466,1.216,9.53,100.9691,1.772,3.008,96,0,109.8,13.32,2.53,14.4
"2016-05-17 00:42:00",1640175,7.328,54.45,6.094,1.235,9.18,100.968,1.769,2.989,96,0,109.8,13.32,2.53,16.5
"2016-05-17 00:42:30",1640176,7.026,54.3,6.716,1.263,9.49,100.9623,1.755,2.968,96,0,109.8,13.32,2.51,16.3
"2016-05-17 00:43:00",1640177,6.906,54.79,6.261,1.239,9.78,100.9623,1.755,3.004,96,0,109.8,13.32,2.51,16.8
"2016-05-17 00:43:30",1640178,6.968,55.36,6.248,1.242,9.49,100.96,1.749,2.988,96,0,109.8,13.32,2.51,17.4
"2016-05-17 00:44:00",1640179,6.938,55.97,6.01,1.269,9.43,100.9569,1.741,2.99,96,0,109.8,13.31,2.50,18.0
"2016-05-17 00:44:30",1640180,6.988,55.82,6.274,1.172,9.28,100.9532,1.732,2.99,96,0,109.9,13.32,2.49,17.8
"2016-05-17 00:45:00",1640181,6.779,56.56,6.418,1.257,9.51,100.9544,1.734,2.967,96,0,109.8,13.31,2.49,18.6
"2016-05-17 00:45:30",1640182,6.741,58.24,6.681,1.305,8.77,100.9549,1.736,2.972,96,0,109.8,13.32,2.49,20.2
"2016-05-17 00:46:00",1640183,5.907,47.97,11.42,1.702,7.739,100.9535,1.732,2.878,95.9,0,109.8,13.32,2.49,10.0
"2016-05-17 00:46:30",1640184,5.756,47.11,6.647,1.267,6.444,100.9498,1.723,2.809,95.8,0,109.8,13.32,2.48,9.1
"2016-05-17 00:47:00",1640185,6.48,50.75,7.05,1.372,8.3,100.9459,1.713,2.891,95.9,0,109.8,13.32,2.47,12.8
"2016-05-17 00:47:30",1640186,6.674,54.27,7.071,1.319,9.28,100.9439,1.708,2.95,95.9,0,109.8,13.32,2.47,16.3
"2016-05-17 00:48:00",1640187,6.892,54.93,6.5,1.263,9.46,100.9442,1.708,2.96,96,0,109.8,13.32,2.47,16.9
"2016-05-17 00:48:30",1640188,6.615,53.43,6.724,1.298,9.83,100.9433,1.706,2.939,95.9,0,109.8,13.32,2.46,15.4
"2016-05-17 00:49:00",1640189,6.482,53.74,7.02,1.312,9.45,100.9448,1.71,2.929,96,0,109.8,13.32,2.47,15.7
"2016-05-17 00:49:30",1640190,5.808,52.86,7.115,1.343,8.18,100.9442,1.708,2.875,95.9,0,109.8,13.32,2.47,14.9
"2016-05-17 00:50:00",1640191,5.915,50.02,6.778,1.401,7.913,100.9439,1.708,2.874,95.9,0,109.8,13.31,2.47,12.0
"2016-05-17 00:50:30",1640192,6.099,52.62,6.947,1.355,8.59,100.9456,1.712,2.87,95.9,0,109.8,13.31,2.47,14.6
"2016-05-17 00:51:00",1640193,6.28,54.68,6.686,1.322,8.85,100.945,1.711,2.877,95.9,0,109.8,13.31,2.47,16.7
"2016-05-17 00:51:30",1640194,6.391,54.68,7.023,1.327,8.9,100.9428,1.705,2.909,95.9,0,109.8,13.31,2.46,16.7
"2016-05-17 00:52:00",1640195,6.367,53.61,6.881,1.415,8.98,100.9436,1.707,2.903,95.9,0,109.8,13.31,2.46,15.6
"2016-05-17 00:52:30",1640196,6.283,53.92,6.292,1.284,9.38,100.943,1.706,2.94,95.9,0,109.8,13.31,2.46,15.9
"2016-05-17 00:53:00",1640197,6.277,53.37,6.815,1.335,9.3,100.9445,1.709,2.935,95.9,0,109.8,13.31,2.47,15.4
"2016-05-17 00:53:30",1640198,5.86,49.65,7.077,1.298,8.46,100.9453,1.711,2.857,95.9,0,109.8,13.31,2.47,11.7
"2016-05-17 00:54:00",1640199,5.846,51.57,7.359,1.415,8.31,100.9448,1.71,2.898,95.9,0,109.8,13.31,2.47,13.6
"2016-05-17 00:54:30",1640200,6.038,51.65,6.937,1.383,8.04,100.9436,1.707,2.858,95.9,0,109.8,13.31,2.46,13.7
"2016-05-17 00:55:00",1640201,6.139,52.77,7.032,1.409,8.46,100.9428,1.705,2.86,95.9,0,109.8,13.32,2.46,14.8
"2016-05-17 00:55:30",1640202,6.022,53.62,6.891,1.369,8.71,100.9436,1.707,2.932,96,0,109.8,13.32,2.46,15.6
"2016-05-17 00:56:00",1640203,6.13,54.78,6.673,1.334,9.33,100.9439,1.708,2.931,96,0,109.8,13.32,2.47,16.8
"2016-05-17 00:56:30",1640204,6.401,53.62,6.393,1.323,9.3,100.9453,1.711,2.943,96,0,109.8,13.32,2.47,15.6
"2016-05-17 00:57:00",1640205,6.077,51.6,7.099,1.373,8.58,100.945,1.711,2.949,96,0,109.8,13.32,2.47,13.6
"2016-05-17 00:57:30",1640206,5.956,49.63,6.897,1.371,7.869,100.9448,1.71,2.833,95.9,0,109.8,13.32,2.47,11.6
"2016-05-17 00:58:00",1640207,6.064,50.33,7,1.361,8.29,100.9442,1.708,2.829,95.8,0,109.8,13.32,2.47,12.3
"2016-05-17 00:58:30",1640208,6.056,49.65,7.086,1.358,8.3,100.9433,1.706,2.866,95.9,0,109.8,13.32,2.46,11.7
"2016-05-17 00:59:00",1640209,6.368,51.1,6.935,1.279,9.25,100.9439,1.708,2.928,96,0,109.8,13.32,2.47,13.1
"2016-05-17 00:59:30",1640210,6.391,50.45,6.705,1.278,9.01,100.9445,1.709,2.897,96,0,109.8,13.32,2.47,12.5
"2016-05-17 01:00:00",1640211,5.911,48.91,6.904,1.308,8.27,100.9442,1.708,2.938,95.9,0,109.8,13.32,2.47,10.9
"2016-05-17 01:00:30",1640212,6.045,49.67,7.105,1.341,8.13,100.9428,1.705,2.841,95.9,0,109.8,13.32,2.46,11.7
"2016-05-17 01:01:00",1640213,5.695,48.45,6.798,1.277,7.743,100.9436,1.707,2.892,95.9,0,109.8,13.32,2.46,10.5
"2016-05-17 01:01:30",1640214,6.091,50.98,7.194,1.395,8.85,100.9442,1.708,2.866,95.9,0,109.8,13.32,2.47,13.0
"2016-05-17 01:02:00",1640215,6.583,53.52,6.629,1.277,9.36,100.9428,1.705,2.938,96,0,109.8,13.32,2.46,15.5
"2016-05-17 01:02:30",1640216,6.326,53.61,6.748,1.308,9.48,100.9442,1.708,2.89,96,0,109.8,13.32,2.47,15.6
"2016-05-17 01:03:00",1640217,6.231,53.42,6.967,1.336,8.85,100.9442,1.708,2.921,95.9,0,109.8,13.32,2.47,15.4
"2016-05-17 01:03:30",1640218,6.258,50.07,6.809,1.324,9.04,100.9442,1.708,2.958,96,0,109.8,13.32,2.47,12.1
"2016-05-17 01:04:00",1640219,5.244,45.66,6.436,1.185,7.253,100.9439,1.708,2.869,95.9,0,109.8,13.32,2.47,7.7
"2016-05-17 01:04:30",1640220,6.139,50.5,6.725,1.316,8.69,100.9433,1.706,2.836,95.9,0,109.8,13.32,2.46,12.5
"2016-05-17 01:05:00",1640221,6.024,49.94,7.049,1.344,8.9,100.9445,1.709,2.848,95.9,0,109.8,13.32,2.47,11.9
"2016-05-17 01:05:30",1640222,6.087,49.61,6.998,1.359,9.08,100.9456,1.712,2.946,96,0,109.8,13.32,2.47,11.6
"2016-05-17 01:06:00",1640223,5.773,47.46,6.829,1.317,8.88,100.9436,1.707,2.918,96,0,109.8,13.32,2.46,9.5
"2016-05-17 01:06:30",1640224,5.751,47.31,6.567,1.329,8.79,100.9439,1.708,2.975,96,0,109.8,13.32,2.47,9.3
"2016-05-17 01:07:00",1640225,5.376,45.29,6.836,1.326,7.433,100.9442,1.708,2.809,95.8,0,109.8,13.31,2.47,7.3
"2016-05-17 01:07:30",1640226,5.517,45.25,6.972,1.406,7.838,100.9433,1.706,2.845,95.9,0,109.8,13.31,2.46,7.2
"2016-05-17 01:08:00",1640227,4.875,43.7,7.086,1.308,8.07,100.9442,1.708,2.864,95.9,0,109.8,13.31,2.47,5.7
"2016-05-17 01:08:30",1640228,4.762,44.47,6.614,1.31,8.89,100.9433,1.706,2.943,96,0,109.8,13.31,2.46,6.5
"2016-05-17 01:09:00",1640229,4.063,40.81,6.774,1.422,7.948,100.9439,1.708,2.888,95.9,0,109.8,13.31,2.47,2.8
"2016-05-17 01:09:30",1640230,3.505,38.4,6.305,1.215,6.99,100.9442,1.708,2.854,95.9,0,109.8,13.31,2.47,0.4
"2016-05-17 01:10:00",1640231,4.046,41.35,7.399,1.425,7.821,100.9442,1.708,2.79,95.8,0,109.8,13.31,2.47,3.3
"2016-05-17 01:10:30",1640232,3.088,34.53,3.011,0.882,5.425,100.9439,1.708,2.675,95.7,0,109.8,13.31,2.47,356.5
"2016-05-17 01:11:00",1640233,4.326,38.79,6.502,1.418,8.22,100.9442,1.708,2.873,95.9,0,109.8,13.31,2.47,0.8
"2016-05-17 01:11:30",1640234,4.768,38.64,6.864,1.323,8.73,100.9433,1.706,2.923,96,0,109.8,13.32,2.46,0.6
"2016-05-17 01:12:00",1640235,4.596,39.95,6.429,1.285,9,100.9445,1.709,2.891,95.9,0,109.8,13.32,2.47,2.0
"2016-05-17 01:12:30",1640236,4.077,31.57,5.958,1.424,6.636,100.9445,1.709,2.815,95.8,0,109.8,13.32,2.47,353.6
"2016-05-17 01:13:00",1640237,4.576,35.47,7.103,1.435,8.21,100.943,1.705,2.835,95.9,0,109.8,13.32,2.46,357.5
"2016-05-17 01:13:30",1640238,3.535,31.6,5.957,1.229,6.491,100.9433,1.706,2.768,95.8,0,109.8,13.32,2.46,353.6
"2016-05-17 01:14:00",1640239,4.38,37.21,7.083,1.347,8.64,100.945,1.711,2.916,95.9,0,109.8,13.32,2.47,359.2
"2016-05-17 01:14:30",1640240,4.749,35.51,6.908,1.335,8.46,100.943,1.706,2.912,96,0,109.8,13.32,2.46,357.5
"2016-05-17 01:15:00",1640241,5.217,35.24,7.031,1.324,9.06,100.9425,1.704,2.932,96,0,109.8,13.32,2.46,357.2
"2016-05-17 01:15:30",1640242,4.487,32.01,7.291,1.375,7.502,100.9414,1.701,2.879,95.9,0,109.8,13.32,2.46,354.0
"2016-05-17 01:16:00",1640243,4.872,32.46,7.166,1.445,7.293,100.9405,1.699,2.781,95.8,0,109.9,13.32,2.46,354.5
"2016-05-17 01:16:30",1640244,4.534,26.71,6.292,1.12,6.45,100.9368,1.69,2.754,95.8,0,109.8,13.32,2.45,348.7
"2016-05-17 01:17:00",1640245,5.722,34.02,6.666,1.265,8.71,100.9295,1.671,2.917,95.9,0,109.8,13.32,2.43,356.0
"2016-05-17 01:17:30",1640246,5.212,32.93,7.503,1.471,8.7,100.9269,1.664,2.894,95.9,0,109.8,13.32,2.42,354.9
"2016-05-17 01:18:00",1640247,5.201,31.21,8.44,1.47,8.06,100.9266,1.664,2.935,96,0,109.8,13.32,2.42,353.2
"2016-05-17 01:18:30",1640248,4.545,27.54,7.017,1.369,7.379,100.9235,1.656,2.772,95.8,0,109.8,13.32,2.41,349.5
"2016-05-17 01:19:00",1640249,4.897,32.03,6.673,1.577,7.62,100.9199,1.646,2.84,95.9,0,109.8,13.32,2.40,354.0
"2016-05-17 01:19:30",1640250,5.571,30.34,7.283,1.328,8.07,100.9159,1.636,2.806,95.8,0,109.8,13.33,2.39,352.3
"2016-05-17 01:20:00",1640251,5.392,31.01,7.909,1.429,8.85,100.9117,1.625,2.907,95.9,0,109.8,13.33,2.38,353.0
"2016-05-17 01:20:30",1640252,5.623,32.04,7.196,1.474,8.88,100.9117,1.625,2.914,95.9,0,109.8,13.32,2.38,354.0
"2016-05-17 01:21:00",1640253,5.133,29.79,8.49,1.653,8.11,100.9114,1.625,2.853,95.9,0,109.8,13.32,2.38,351.8
"2016-05-17 01:21:30",1640254,4.333,27.98,7.284,1.279,7.22,100.9128,1.628,2.83,95.9,0,109.8,13.32,2.39,350.0
"2016-05-17 01:22:00",1640255,5.163,32.82,7.246,1.415,8.49,100.9117,1.625,2.782,95.8,0,109.8,13.32,2.38,354.8
"2016-05-17 01:22:30",1640256,4.914,31.68,7.017,1.407,8.11,100.9122,1.627,2.864,95.9,0,109.8,13.33,2.38,353.7
"2016-05-17 01:23:00",1640257,4.971,32.38,7.041,1.345,8.29,100.9114,1.625,2.854,95.9,0,109.8,13.33,2.38,354.4
"2016-05-17 01:23:30",1640258,5.207,31.11,7.062,1.335,8.73,100.9105,1.623,2.858,95.9,0,109.8,13.32,2.38,353.1
"2016-05-17 01:24:00",1640259,5.139,31.23,7.647,1.324,8.14,100.9122,1.627,2.824,95.9,0,109.8,13.32,2.38,353.2
"2016-05-17 01:24:30",1640260,4.894,32.56,7.324,1.332,8.14,100.9137,1.631,2.802,95.8,0,109.8,13.32,2.39,354.6
"2016-05-17 01:25:00",1640261,4.586,31.84,7.162,1.35,7.579,100.9139,1.631,2.761,95.8,0,109.8,13.32,2.39,353.8
"2016-05-17 01:25:30",1640262,5.075,30.94,6.682,1.361,8.5,100.9119,1.626,2.872,95.9,0,109.8,13.32,2.38,352.9
"2016-05-17 01:26:00",1640263,5.518,31.24,7.245,1.42,8.58,100.9148,1.633,2.833,95.9,0,109.8,13.32,2.39,353.2
"2016-05-17 01:26:30",1640264,5.354,29.69,7.172,1.423,8.26,100.9137,1.631,2.832,95.9,0,109.7,13.32,2.39,351.7
"2016-05-17 01:27:00",1640265,4.697,30.15,7.426,1.311,7.873,100.9139,1.631,2.81,95.9,0,109.8,13.32,2.39,352.1
"2016-05-17 01:27:30",1640266,4.919,30.08,7.926,1.545,8.5,100.9145,1.633,2.826,95.9,0,109.8,13.32,2.39,352.1
"2016-05-17 01:28:00",1640267,4.547,27.76,6.967,1.451,7.688,100.9151,1.634,2.841,95.9,0,109.8,13.32,2.39,349.8
"2016-05-17 01:28:30",1640268,4.961,30.37,7.228,1.298,8.33,100.9148,1.633,2.779,95.8,0,109.8,13.32,2.39,352.4
"2016-05-17 01:29:00",1640269,5,31.6,6.682,1.358,8.77,100.9137,1.631,2.867,95.9,0,109.8,13.33,2.39,353.6
"2016-05-17 01:29:30",1640270,4.879,29.68,6.82,1.385,8.11,100.9148,1.633,2.83,95.9,0,109.8,13.33,2.39,351.7
"2016-05-17 01:30:00",1640271,4.782,29.1,6.887,1.351,8.13,100.9145,1.633,2.866,95.9,0,109.8,13.33,2.39,351.1
"2016-05-17 01:30:30",1640272,4.708,29.44,6.885,1.339,7.999,100.9134,1.63,2.848,95.9,0,109.8,13.33,2.39,351.4
"2016-05-17 01:31:00",1640273,4.473,27.49,6.897,1.412,7.316,100.9137,1.631,2.815,95.8,0,109.8,13.33,2.39,349.5
"2016-05-17 01:31:30",1640274,4.733,29.4,7.709,1.359,7.938,100.9137,1.631,2.836,95.9,0,109.8,13.33,2.39,351.4
"2016-05-17 01:32:00",1640275,5.065,32.59,7.08,1.435,8.9,100.9122,1.627,2.894,95.9,0,109.8,13.33,2.38,354.6
"2016-05-17 01:32:30",1640276,4.937,31.19,7.002,1.422,8.58,100.9154,1.635,2.813,95.9,0,109.8,13.33,2.39,353.2
"2016-05-17 01:33:00",1640277,5.405,32.44,6.866,1.281,9.11,100.9148,1.633,2.894,95.9,0,109.8,13.33,2.39,354.4
"2016-05-17 01:33:30",1640278,4.497,27.64,6.755,1.305,7.381,100.9154,1.635,2.778,95.8,0,109.8,13.33,2.39,349.6
"2016-05-17 01:34:00",1640279,4.424,27.54,6.932,1.367,7.546,100.9151,1.634,2.844,95.9,0,109.8,13.33,2.39,349.5
"2016-05-17 01:34:30",1640280,4.433,29.55,7.401,1.342,8.21,100.9162,1.637,2.837,95.9,0,109.8,13.33,2.39,351.5
"2016-05-17 01:35:00",1640281,4.149,28.02,7.009,1.374,7.86,100.9154,1.635,2.836,95.9,0,109.8,13.33,2.39,350.0
"2016-05-17 01:35:30",1640282,4.198,27.97,7.125,1.302,8.75,100.9168,1.639,2.916,95.9,0,109.8,13.33,2.40,350.0
"2016-05-17 01:36:00",1640283,4.114,25.64,7.414,1.47,8.12,100.9168,1.639,2.797,95.9,0,109.8,13.33,2.40,347.6
"2016-05-17 01:36:30",1640284,4.088,26.19,7.434,1.382,7.088,100.9162,1.637,2.823,95.8,0,109.8,13.33,2.39,348.2
"2016-05-17 01:37:00",1640285,4.318,27.8,7.054,1.354,7.413,100.9165,1.638,2.877,95.9,0,109.7,13.33,2.40,349.8
"2016-05-17 01:37:30",1640286,4.395,28.46,6.841,1.384,8.02,100.9165,1.638,2.845,95.9,0,109.8,13.33,2.40,350.5
"2016-05-17 01:38:00",1640287,3.909,25.33,7.324,1.36,8.26,100.9165,1.638,2.823,95.8,0,109.8,13.33,2.40,347.3
"2016-05-17 01:38:30",1640288,4.417,29.59,6.744,1.282,9.19,100.9157,1.636,2.906,95.9,0,109.8,13.33,2.39,351.6
"2016-05-17 01:39:00",1640289,3.911,26.4,6.505,1.286,7.7,100.9165,1.638,2.835,95.9,0,109.8,13.33,2.40,348.4
"2016-05-17 01:39:30",1640290,4.442,29.42,6.751,1.389,8.51,100.9168,1.639,2.871,95.9,0,109.8,13.33,2.40,351.4
"2016-05-17 01:40:00",1640291,3.657,26.28,6.673,1.266,6.981,100.9162,1.637,2.824,95.8,0,109.8,13.32,2.39,348.3
"2016-05-17 01:40:30",1640292,4.121,28.11,7.118,1.311,8.44,100.9134,1.63,2.853,95.9,0,109.8,13.32,2.39,350.1
"2016-05-17 01:41:00",1640293,4.178,27.68,7.83,1.348,8.55,100.9109,1.623,2.888,95.9,0,109.8,13.32,2.38,349.7
"2016-05-17 01:41:30",1640294,4.454,26.81,7.58,1.385,8.68,100.9069,1.613,2.884,95.9,0,109.8,13.32,2.37,348.8
"2016-05-17 01:42:00",1640295,4.204,26.67,7.093,1.422,8.04,100.9021,1.601,2.813,95.8,0,109.8,13.32,2.36,348.7
"2016-05-17 01:42:30",1640296,4.692,28.57,7.149,1.343,7.875,100.899,1.593,2.828,95.9,0,109.8,13.32,2.35,350.6
"2016-05-17 01:43:00",1640297,4.787,28.05,7.095,1.394,7.865,100.8987,1.592,2.812,95.8,0,109.8,13.32,2.35,350.0
"2016-05-17 01:43:30",1640298,4.455,26.79,6.965,1.335,7.374,100.8984,1.592,2.763,95.8,0,109.7,13.32,2.35,348.8
"2016-05-17 01:44:00",1640299,5.011,29.56,7.308,1.428,8.4,100.8961,1.586,2.826,95.9,0,109.7,13.32,2.34,351.6
"2016-05-17 01:44:30",1640300,5.3,30.91,6.964,1.388,8.78,100.8976,1.589,2.846,95.9,0,109.7,13.32,2.35,352.9
"2016-05-17 01:45:00",1640301,5.239,29.59,7.147,1.351,8.03,100.8939,1.58,2.816,95.9,0,109.8,13.32,2.34,351.6
"2016-05-17 01:45:30",1640302,5.119,29.27,7.038,1.366,7.987,100.8865,1.561,2.793,95.8,0,109.7,13.32,2.32,351.3
"2016-05-17 01:46:00",1640303,5.875,32.3,6.674,1.264,8.91,100.8834,1.553,2.789,95.8,0,109.7,13.33,2.31,354.3
"2016-05-17 01:46:30",1640304,4.87,27.86,6.988,1.335,7.888,100.8828,1.552,2.75,95.8,0,109.8,13.33,2.31,349.9
"2016-05-17 01:47:00",1640305,5.725,31.55,6.818,1.313,8.85,100.8828,1.552,2.84,95.9,0,109.7,13.33,2.31,353.5
"2016-05-17 01:47:30",1640306,5.858,32.27,6.745,1.347,9.15,100.8828,1.552,2.846,95.9,0,109.8,13.33,2.31,354.3
"2016-05-17 01:48:00",1640307,5.405,30.68,7.221,1.333,8.74,100.8828,1.552,2.813,95.8,0,109.7,13.33,2.31,352.7
"2016-05-17 01:48:30",1640308,4.52,27.04,7.733,1.421,8.11,100.8828,1.552,2.782,95.8,0,109.8,13.33,2.31,349.0
"2016-05-17 01:49:00",1640309,4.543,27.74,6.984,1.367,7.54,100.8823,1.55,2.761,95.8,0,109.7,13.33,2.31,349.7
"2016-05-17 01:49:30",1640310,4.484,25.72,6.918,1.347,7.424,100.8778,1.539,2.677,95.8,0,109.7,13.33,2.30,347.7
"2016-05-17 01:50:00",1640311,5.582,30.68,6.978,1.329,9.16,100.8718,1.524,2.786,95.9,0,109.7,13.33,2.28,352.7
"2016-05-17 01:50:30",1640312,4.872,27.97,7.098,1.351,7.88,100.8673,1.512,2.742,95.8,0,109.7,13.33,2.27,350.0